Time,TemperatureF,DewpointF,PressureIn,WindDirection,WindDirectionDegrees,WindSpeedMPH,WindSpeedGustMPH,Humidity,HourlyPrecipIn,Conditions,Clouds,dailyrainin,SoftwareType,DateUTC
2013-07-18 00:01:00,73.0,-99.9,-100.00,WSW,255,4.0,9.0,-999,-99.99,,,-99.99,,2013-07-18 07:01:00,
2013-07-18 04:01:00,65.0,-99.9,-100.00,West,273,8.0,13.0,-999,-99.99,,,-99.99,,2013-07-18 11:01:00,
2013-07-18 04:12:00,65.0,-99.9,-100.00,West,273,8.0,13.0,-999,-99.99,,,-99.99,,2013-07-18 11:12:00,
2013-07-18 04:20:00,71.0,-99.9,-100.00,WSW,248,11.0,17.0,-999,-99.99,,,-99.99,,2013-07-18 11:20:00,
2013-07-18 04:43:00,64.0,-99.9,-100.00,West,268,15.0,15.0,-999,-99.99,,,-99.99,,2013-07-18 11:43:00,
2013-07-18 04:52:00,64.0,-99.9,-100.00,West,268,15.0,15.0,-999,-99.99,,,-99.99,,2013-07-18 11:52:00,
2013-07-18 05:00:00,70.0,-99.9,-100.00,West,269,8.0,11.0,-999,-99.99,,,-99.99,,2013-07-18 12:00:00,
2013-07-18 05:11:00,71.0,-99.9,-100.00,WSW,248,11.0,17.0,-999,-99.99,,,-99.99,,2013-07-18 12:11:00,
2013-07-18 05:42:00,64.0,-99.9,-100.00,WNW,286,11.0,11.0,-999,-99.99,,,-99.99,,2013-07-18 12:42:00,
2013-07-18 05:52:00,70.0,-99.9,-100.00,West,269,8.0,11.0,-999,-99.99,,,-99.99,,2013-07-18 12:52:00,
2013-07-18 06:22:00,63.0,-99.9,-100.00,West,278,14.0,17.0,-999,-99.99,,,-99.99,,2013-07-18 13:22:00,
2013-07-18 06:33:00,63.0,-99.9,-100.00,West,278,14.0,17.0,-999,-99.99,,,-99.99,,2013-07-18 13:33:00,
2013-07-18 06:43:00,64.0,-99.9,-100.00,West,265,5.0,10.0,-999,-99.99,,,-99.99,,2013-07-18 13:43:00,
2013-07-18 06:53:00,64.0,-99.9,-100.00,West,265,5.0,10.0,-999,-99.99,,,-99.99,,2013-07-18 13:53:00,
2013-07-18 07:43:00,62.0,-99.9,-100.00,WNW,295,4.0,11.0,-999,-99.99,,,-99.99,,2013-07-18 14:43:00,
2013-07-18 07:53:00,62.0,-99.9,-100.00,WNW,295,4.0,11.0,-999,-99.99,,,-99.99,,2013-07-18 14:53:00,
2013-07-18 08:53:00,62.0,-99.9,-100.00,West,262,12.0,18.0,-999,-99.99,,,-99.99,,2013-07-18 15:53:00,
2013-07-18 09:12:00,73.0,-99.9,-100.00,NW,305,10.0,14.0,-999,-99.99,,,-99.99,,2013-07-18 16:12:00,
2013-07-18 09:22:00,73.0,-99.9,-100.00,NW,305,10.0,14.0,-999,-99.99,,,-99.99,,2013-07-18 16:22:00,
2013-07-18 09:32:00,69.0,-99.9,-100.00,SW,215,4.0,12.0,-999,-99.99,,,-99.99,,2013-07-18 16:32:00,
2013-07-18 09:42:00,69.0,-99.9,-100.00,SW,215,4.0,12.0,-999,-99.99,,,-99.99,,2013-07-18 16:42:00,
2013-07-18 09:52:00,69.0,-99.9,-100.00,SW,215,4.0,12.0,-999,-99.99,,,-99.99,,2013-07-18 16:52:00,
2013-07-18 10:11:00,69.0,-99.9,-100.00,NW,308,4.0,15.0,-999,-99.99,,,-99.99,,2013-07-18 17:11:00,
2013-07-18 10:43:00,73.0,-99.9,-100.00,West,272,13.0,13.0,-999,-99.99,,,-99.99,,2013-07-18 17:43:00,
2013-07-18 10:52:00,73.0,-99.9,-100.00,West,272,13.0,13.0,-999,-99.99,,,-99.99,,2013-07-18 17:52:00,
2013-07-18 11:12:00,80.0,-99.9,-100.00,WSW,253,9.0,17.0,-999,-99.99,,,-99.99,,2013-07-18 18:12:00,
2013-07-18 11:22:00,80.0,-99.9,-100.00,WSW,253,9.0,17.0,-999,-99.99,,,-99.99,,2013-07-18 18:22:00,
2013-07-18 11:43:00,77.0,-99.9,-100.00,WSW,246,7.0,14.0,-999,-99.99,,,-99.99,,2013-07-18 18:43:00,
2013-07-18 11:52:00,77.0,-99.9,-100.00,WSW,246,7.0,14.0,-999,-99.99,,,-99.99,,2013-07-18 18:52:00,
2013-07-18 13:00:00,86.0,-99.9,-100.00,North,353,3.0,10.0,-999,-99.99,,,-99.99,,2013-07-18 20:00:00,
2013-07-18 13:52:00,86.0,-99.9,-100.00,North,353,3.0,10.0,-999,-99.99,,,-99.99,,2013-07-18 20:52:00,
2013-07-18 14:43:00,87.0,-99.9,-100.00,West,260,7.0,16.0,-999,-99.99,,,-99.99,,2013-07-18 21:43:00,
2013-07-18 14:52:00,87.0,-99.9,-100.00,West,260,7.0,16.0,-999,-99.99,,,-99.99,,2013-07-18 21:52:00,
2013-07-18 15:53:00,87.0,-99.9,-100.00,West,263,13.0,16.0,-999,-99.99,,,-99.99,,2013-07-18 22:53:00,
2013-07-18 16:42:00,93.0,-99.9,-100.00,West,271,19.0,23.0,-999,-99.99,,,-99.99,,2013-07-18 23:42:00,
2013-07-18 16:52:00,93.0,-99.9,-100.00,West,271,19.0,23.0,-999,-99.99,,,-99.99,,2013-07-18 23:52:00,
2013-07-18 17:00:00,87.0,-99.9,-100.00,WSW,240,11.0,19.0,-999,-99.99,,,-99.99,,2013-07-19 00:00:00,
2013-07-18 17:52:00,87.0,-99.9,-100.00,WSW,240,11.0,19.0,-999,-99.99,,,-99.99,,2013-07-19 00:52:00,
2013-07-18 18:52:00,91.0,-99.9,-100.00,West,271,10.0,17.0,-999,-99.99,,,-99.99,,2013-07-19 01:52:00,
2013-07-18 19:00:00,84.0,-99.9,-100.00,NW,305,6.0,16.0,-999,-99.99,,,-99.99,,2013-07-19 02:00:00,
2013-07-18 19:43:00,85.0,-99.9,-100.00,WNW,298,4.0,13.0,-999,-99.99,,,-99.99,,2013-07-19 02:43:00,
2013-07-18 19:52:00,84.0,-99.9,-100.00,NW,305,6.0,16.0,-999,-99.99,,,-99.99,,2013-07-19 02:52:00,
2013-07-18 20:43:00,81.0,-99.9,-100.00,West,279,6.0,10.0,-999,-99.99,,,-99.99,,2013-07-19 03:43:00,
2013-07-18 20:52:00,81.0,-99.9,-100.00,West,279,6.0,10.0,-999,-99.99,,,-99.99,,2013-07-19 03:52:00,
2013-07-18 21:00:00,81.0,-99.9,-100.00,WSW,238,10.0,16.0,-999,-99.99,,,-99.99,,2013-07-19 04:00:00,
2013-07-18 21:12:00,82.0,-99.9,-100.00,West,272,7.0,12.0,-999,-99.99,,,-99.99,,2013-07-19 04:12:00,
2013-07-18 21:52:00,81.0,-99.9,-100.00,WSW,238,10.0,16.0,-999,-99.99,,,-99.99,,2013-07-19 04:52:00,
2013-07-18 22:43:00,79.0,-99.9,-100.00,West,266,12.0,15.0,-999,-99.99,,,-99.99,,2013-07-19 05:43:00,
2013-07-18 22:53:00,79.0,-99.9,-100.00,West,266,12.0,15.0,-999,-99.99,,,-99.99,,2013-07-19 05:53:00,
2013-07-18 23:43:00,73.0,-99.9,-100.00,West,275,11.0,13.0,-999,-99.99,,,-99.99,,2013-07-19 06:43:00,
2013-07-18 23:53:00,73.0,-99.9,-100.00,West,275,11.0,13.0,-999,-99.99,,,-99.99,,2013-07-19 06:53:00,